DW6233 Weather Reports


Display with metric or nautical units.
time (UTC)temp
F
wind
direction
speed
MPH
gust
MPH
rain 1hr
in
rain 24hr
in
rain mn
in
humidity
%
barometer
mb
20260905230056 57 3 26.0 44.0 0.00 0.00 0.00 86 1010.4
20260905224552 57 357 25.0 41.0 0.00 0.00 0.00 87 1010.6
20260905223008 57 22 25.0 39.0 0.00 0.00 0.00 86 1010.6
20260905221536 57 5 22.0 42.0 0.00 0.00 0.00 86 1011.1
20260905220021 57 347 27.0 40.0 0.00 0.00 0.00 86 1011.2
20260905214533 57 343 26.0 40.0 0.00 0.00 0.00 86 1011.3
20260905213048 57 17 26.0 42.0 0.00 0.00 0.00 86 1011.2
20260905211550 57 9 28.0 37.0 0.00 0.00 0.00 86 1011.3
20260905210008 57 22 25.0 37.0 0.00 0.00 0.00 87 1011.5
20260905204558 57 19 26.0 38.0 0.00 0.00 0.00 87 1011.5
20260905204535 57 352 27.0 38.0 0.00 0.00 0.00 87 1011.5
20260905203042 57 14 23.0 38.0 0.00 0.00 0.00 88 1011.5
20260905201510 57 358 20.0 30.0 0.00 0.00 0.00 88 1011.6
20260905200025 56 5 20.0 27.0 0.00 0.00 0.00 88 1011.9
20260905194546 56 3 19.0 30.0 0.00 0.00 0.00 89 1012.0
20260905193015 56 2 19.0 33.0 0.00 0.00 0.00 89 1012.0
20260905191515 56 313 21.0 36.0 0.00 0.00 0.00 88 1012.2
20260905190042 56 16 23.0 33.0 0.00 0.00 0.00 88 1012.1
20260905184543 56 13 20.0 37.0 0.00 0.00 0.00 88 1012.4
20260905183043 57 36 21.0 34.0 0.00 0.00 0.00 88 1012.4
20260905180001 57 341 21.0 46.0 0.00 0.00 0.00 86 1012.5
20260905174600 57 348 22.0 34.0 0.00 0.00 0.00 86 1012.3
20260905174532 57 10 22.0 34.0 0.00 0.00 0.00 86 1012.3
20260905173052 57 344 16.0 33.0 0.00 0.00 0.00 85 1012.2
20260905130049 56 10 22.0 38.0 0.00 0.00 0.00 86 1012.8
20260905124554 56 353 20.0 38.0 0.00 0.00 0.00 85 1012.6
20260905123029 56 360 12.0 22.0 0.00 0.00 0.00 85 1012.7
20260905013018 56 332 20.0 31.0 0.00 0.00 0.00 80 1014.4
20260905011558 56 332 21.0 33.0 0.00 0.00 0.00 79 1014.7
20260905010106 56 303 15.0 28.0 0.00 0.00 0.00 80 1014.7
20260905004551 56 314 19.0 29.0 0.00 0.00 0.00 78 1014.6
20260905003052 56 337 15.0 24.0 0.00 0.00 0.00 77 1014.6
20260905001557 56 322 15.0 20.0 0.00 0.00 0.00 75 1014.8
20260905000100 56 351 12.0 21.0 0.00 0.00 0.00 75 1015.0
20260904234549 56 351 12.0 22.0 0.00 0.00 0.00 73 1015.2
20260904233024 56 338 5.0 12.0 0.00 0.00 0.00 69 1015.3
20260904231533 56 24 11.0 18.0 0.00 0.00 0.00 68 1015.2